Time,TemperatureF,DewpointF,PressureIn,WindDirection,WindDirectionDegrees,WindSpeedMPH,WindSpeedGustMPH,Humidity,HourlyPrecipIn,Conditions,Clouds,dailyrainin,SoftwareType,DateUTC
2013-03-02 00:01:00,41.0,29.0,29.98,NNW,335,4.0,10.0,62,0.00,,,0.00,,2013-03-02 06:01:00,
2013-03-02 00:11:00,41.0,29.0,29.98,NNW,335,4.0,10.0,62,0.00,,,0.00,,2013-03-02 06:11:00,
2013-03-02 00:21:00,40.0,28.0,29.98,North,355,3.0,10.0,63,0.00,,,0.00,,2013-03-02 06:21:00,
2013-03-02 00:32:00,40.0,29.0,29.99,NW,315,5.0,11.0,64,0.00,,,0.00,,2013-03-02 06:32:00,
2013-03-02 00:42:00,40.0,29.0,29.99,NW,315,5.0,11.0,64,0.00,,,0.00,,2013-03-02 06:42:00,
2013-03-02 00:51:00,39.0,28.0,29.99,North,351,4.0,12.0,65,0.00,,,0.00,,2013-03-02 06:51:00,
2013-03-02 01:01:00,39.0,28.0,29.99,NW,319,6.0,14.0,65,0.00,,,0.00,,2013-03-02 07:01:00,
2013-03-02 01:11:00,39.0,28.0,29.99,NW,319,6.0,14.0,65,0.00,,,0.00,,2013-03-02 07:11:00,
2013-03-02 01:21:00,38.0,28.0,29.99,NNW,342,4.0,9.0,66,0.00,,,0.00,,2013-03-02 07:21:00,
2013-03-02 01:32:00,38.0,28.0,30.00,WNW,301,4.0,10.0,66,0.00,,,0.00,,2013-03-02 07:32:00,
2013-03-02 01:42:00,38.0,28.0,30.00,WNW,301,4.0,10.0,66,0.00,,,0.00,,2013-03-02 07:42:00,
2013-03-02 01:51:00,37.0,27.0,30.01,NW,310,4.0,9.0,68,0.00,,,0.00,,2013-03-02 07:51:00,
2013-03-02 02:01:00,36.0,27.0,30.01,NW,320,2.0,9.0,69,0.00,,,0.00,,2013-03-02 08:01:00,
2013-03-02 02:11:00,36.0,27.0,30.01,NW,320,2.0,9.0,69,0.00,,,0.00,,2013-03-02 08:11:00,
2013-03-02 02:21:00,36.0,27.0,30.01,NNW,332,2.0,9.0,70,0.00,,,0.00,,2013-03-02 08:21:00,
2013-03-02 02:32:00,35.0,26.0,30.01,NW,325,5.0,9.0,69,0.00,,,0.00,,2013-03-02 08:32:00,
2013-03-02 02:42:00,35.0,26.0,30.01,NW,325,5.0,9.0,69,0.00,,,0.00,,2013-03-02 08:42:00,
2013-03-02 02:52:00,35.0,26.0,30.01,NNW,345,3.0,9.0,69,0.00,,,0.00,,2013-03-02 08:52:00,
2013-03-02 03:02:00,35.0,26.0,30.01,WNW,298,3.0,8.0,69,0.00,,,0.00,,2013-03-02 09:02:00,
2013-03-02 03:11:00,35.0,26.0,30.01,WNW,298,3.0,8.0,69,0.00,,,0.00,,2013-03-02 09:11:00,
2013-03-02 03:21:00,35.0,26.0,30.01,NNW,339,2.0,8.0,69,0.00,,,0.00,,2013-03-02 09:21:00,
2013-03-02 03:32:00,34.0,25.0,30.01,NW,306,3.0,6.0,70,0.00,,,0.00,,2013-03-02 09:32:00,
2013-03-02 03:42:00,34.0,25.0,30.01,NW,306,3.0,6.0,70,0.00,,,0.00,,2013-03-02 09:42:00,
2013-03-02 03:51:00,34.0,25.0,30.01,WNW,298,2.0,7.0,70,0.00,,,0.00,,2013-03-02 09:51:00,
2013-03-02 04:01:00,34.0,26.0,30.01,WNW,288,2.0,8.0,71,0.00,,,0.00,,2013-03-02 10:01:00,
2013-03-02 04:15:00,34.0,26.0,30.01,WNW,288,2.0,8.0,71,0.00,,,0.00,,2013-03-02 10:15:00,
2013-03-02 04:22:00,34.0,26.0,30.01,NW,316,2.0,7.0,72,0.00,,,0.00,,2013-03-02 10:22:00,
2013-03-02 04:32:00,33.0,25.0,30.01,NW,309,3.0,8.0,72,0.00,,,0.00,,2013-03-02 10:32:00,
2013-03-02 04:42:00,33.0,25.0,30.01,NW,309,3.0,8.0,72,0.00,,,0.00,,2013-03-02 10:42:00,
2013-03-02 04:52:00,33.0,25.0,30.02,WNW,303,4.0,8.0,71,0.00,,,0.00,,2013-03-02 10:52:00,
2013-03-02 05:01:00,33.0,25.0,30.02,NW,325,3.0,6.0,71,0.00,,,0.00,,2013-03-02 11:01:00,
2013-03-02 05:11:00,33.0,25.0,30.02,NW,325,3.0,6.0,71,0.00,,,0.00,,2013-03-02 11:11:00,
2013-03-02 05:21:00,33.0,25.0,30.02,NW,325,3.0,6.0,71,0.00,,,0.00,,2013-03-02 11:21:00,
2013-03-02 05:32:00,33.0,25.0,30.03,WNW,302,2.0,6.0,72,0.00,,,0.00,,2013-03-02 11:32:00,
2013-03-02 05:42:00,33.0,25.0,30.03,WNW,302,2.0,6.0,72,0.00,,,0.00,,2013-03-02 11:42:00,
2013-03-02 05:52:00,32.0,24.0,30.04,NW,313,4.0,8.0,73,0.00,,,0.00,,2013-03-02 11:52:00,
2013-03-02 06:02:00,32.0,25.0,30.04,WNW,291,2.0,6.0,75,0.00,,,0.00,,2013-03-02 12:02:00,
2013-03-02 06:11:00,32.0,25.0,30.04,WNW,291,2.0,6.0,75,0.00,,,0.00,,2013-03-02 12:11:00,
2013-03-02 06:21:00,32.0,25.0,30.04,NW,313,3.0,7.0,76,0.00,,,0.00,,2013-03-02 12:21:00,
2013-03-02 06:33:00,31.0,25.0,30.05,NNW,328,2.0,9.0,77,0.00,,,0.00,,2013-03-02 12:33:00,
2013-03-02 06:43:00,31.0,25.0,30.05,NNW,328,2.0,9.0,77,0.00,,,0.00,,2013-03-02 12:43:00,
2013-03-02 06:53:00,31.0,25.0,30.05,WNW,293,1.0,6.0,78,0.00,,,0.00,,2013-03-02 12:53:00,
2013-03-02 07:01:00,31.0,25.0,30.06,NW,326,3.0,7.0,78,0.00,,,0.00,,2013-03-02 13:01:00,
2013-03-02 07:11:00,31.0,25.0,30.06,NW,326,3.0,7.0,78,0.00,,,0.00,,2013-03-02 13:11:00,
2013-03-02 07:22:00,31.0,25.0,30.07,NW,315,3.0,7.0,79,0.00,,,0.00,,2013-03-02 13:22:00,
2013-03-02 07:32:00,31.0,25.0,30.07,WNW,296,2.0,6.0,79,0.00,,,0.00,,2013-03-02 13:32:00,
2013-03-02 07:42:00,31.0,25.0,30.07,WNW,296,2.0,6.0,79,0.00,,,0.00,,2013-03-02 13:42:00,
2013-03-02 07:52:00,31.0,25.0,30.08,NW,312,3.0,7.0,79,0.00,,,0.00,,2013-03-02 13:52:00,
2013-03-02 08:01:00,31.0,25.0,30.09,NNW,343,4.0,9.0,77,0.00,,,0.00,,2013-03-02 14:01:00,
2013-03-02 08:11:00,31.0,25.0,30.09,NNW,343,4.0,9.0,77,0.00,,,0.00,,2013-03-02 14:11:00,
2013-03-02 08:21:00,32.0,25.0,30.09,NW,310,4.0,8.0,75,0.00,,,0.00,,2013-03-02 14:21:00,
2013-03-02 08:32:00,33.0,25.0,30.10,NW,326,4.0,11.0,72,0.00,,,0.00,,2013-03-02 14:32:00,
2013-03-02 08:42:00,33.0,25.0,30.10,NW,326,4.0,11.0,72,0.00,,,0.00,,2013-03-02 14:42:00,
2013-03-02 08:52:00,33.0,24.0,30.11,NW,317,3.0,11.0,68,0.00,,,0.00,,2013-03-02 14:52:00,
2013-03-02 09:02:00,34.0,23.0,30.11,NNW,340,6.0,14.0,65,0.00,,,0.00,,2013-03-02 15:02:00,
2013-03-02 09:11:00,34.0,23.0,30.11,NNW,340,6.0,14.0,65,0.00,,,0.00,,2013-03-02 15:11:00,
2013-03-02 09:21:00,35.0,24.0,30.11,NNE,16,4.0,12.0,64,0.00,,,0.00,,2013-03-02 15:21:00,
2013-03-02 09:32:00,35.0,23.0,30.11,NW,309,6.0,14.0,62,0.00,,,0.00,,2013-03-02 15:32:00,
2013-03-02 09:42:00,35.0,23.0,30.11,NW,309,6.0,14.0,62,0.00,,,0.00,,2013-03-02 15:42:00,
2013-03-02 09:52:00,37.0,24.0,30.11,NW,310,5.0,15.0,60,0.00,,,0.00,,2013-03-02 15:52:00,
2013-03-02 10:01:00,37.0,24.0,30.11,NNW,328,6.0,13.0,58,0.00,,,0.00,,2013-03-02 16:01:00,
2013-03-02 10:11:00,37.0,24.0,30.11,NNW,328,6.0,13.0,58,0.00,,,0.00,,2013-03-02 16:11:00,
2013-03-02 10:21:00,38.0,24.0,30.11,NW,325,5.0,12.0,57,0.00,,,0.00,,2013-03-02 16:21:00,
2013-03-02 10:32:00,39.0,24.0,30.11,NNE,20,4.0,12.0,55,0.00,,,0.00,,2013-03-02 16:32:00,
2013-03-02 10:42:00,39.0,24.0,30.11,NNE,20,4.0,12.0,55,0.00,,,0.00,,2013-03-02 16:42:00,
2013-03-02 10:52:00,39.0,23.0,30.10,NW,313,5.0,12.0,53,0.00,,,0.00,,2013-03-02 16:52:00,
2013-03-02 11:01:00,39.0,23.0,30.10,NW,313,5.0,12.0,53,0.00,,,0.00,,2013-03-02 17:01:00,
2013-03-02 11:11:00,39.0,23.0,30.10,NW,313,5.0,12.0,53,0.00,,,0.00,,2013-03-02 17:11:00,
2013-03-02 11:21:00,41.0,23.0,30.09,WNW,285,6.0,11.0,48,0.00,,,0.00,,2013-03-02 17:21:00,
2013-03-02 11:32:00,42.0,23.0,30.09,NNW,335,3.0,12.0,47,0.00,,,0.00,,2013-03-02 17:32:00,
2013-03-02 11:42:00,42.0,23.0,30.09,NNW,335,3.0,12.0,47,0.00,,,0.00,,2013-03-02 17:42:00,
2013-03-02 11:52:00,44.0,25.0,30.09,West,262,4.0,9.0,46,0.00,,,0.00,,2013-03-02 17:52:00,
2013-03-02 12:01:00,45.0,24.0,30.08,West,281,3.0,9.0,43,0.00,,,0.00,,2013-03-02 18:01:00,
2013-03-02 12:11:00,45.0,24.0,30.08,West,281,3.0,9.0,43,0.00,,,0.00,,2013-03-02 18:11:00,
2013-03-02 12:22:00,45.0,23.0,30.08,NW,311,7.0,12.0,41,0.00,,,0.00,,2013-03-02 18:22:00,
2013-03-02 12:32:00,46.0,24.0,30.06,NW,313,5.0,10.0,41,0.00,,,0.00,,2013-03-02 18:32:00,
2013-03-02 12:42:00,46.0,24.0,30.06,NW,313,5.0,10.0,41,0.00,,,0.00,,2013-03-02 18:42:00,
2013-03-02 12:52:00,46.0,23.0,30.05,NW,326,3.0,12.0,40,0.00,,,0.00,,2013-03-02 18:52:00,
2013-03-02 13:01:00,48.0,24.0,30.05,NNW,342,2.0,11.0,38,0.00,,,0.00,,2013-03-02 19:01:00,
2013-03-02 13:11:00,48.0,24.0,30.05,NNW,342,2.0,11.0,38,0.00,,,0.00,,2013-03-02 19:11:00,
2013-03-02 13:22:00,49.0,25.0,30.04,NW,314,4.0,17.0,38,0.00,,,0.00,,2013-03-02 19:22:00,
2013-03-02 13:32:00,50.0,24.0,30.03,West,281,3.0,10.0,36,0.00,,,0.00,,2013-03-02 19:32:00,
2013-03-02 13:42:00,50.0,24.0,30.03,West,281,3.0,10.0,36,0.00,,,0.00,,2013-03-02 19:42:00,
2013-03-02 13:52:00,50.0,23.0,30.02,NW,317,5.0,11.0,35,0.00,,,0.00,,2013-03-02 19:52:00,
2013-03-02 14:01:00,51.0,24.0,30.01,North,5,5.0,11.0,35,0.00,,,0.00,,2013-03-02 20:01:00,
2013-03-02 14:11:00,51.0,24.0,30.01,North,5,5.0,11.0,35,0.00,,,0.00,,2013-03-02 20:11:00,
2013-03-02 14:22:00,52.0,24.0,30.00,WNW,286,4.0,10.0,33,0.00,,,0.00,,2013-03-02 20:22:00,
2013-03-02 14:32:00,54.0,26.0,29.99,West,275,2.0,11.0,33,0.00,,,0.00,,2013-03-02 20:32:00,
2013-03-02 14:42:00,54.0,26.0,29.99,West,275,2.0,11.0,33,0.00,,,0.00,,2013-03-02 20:42:00,
2013-03-02 14:52:00,53.0,24.0,29.98,NW,307,4.0,9.0,32,0.00,,,0.00,,2013-03-02 20:52:00,
2013-03-02 15:02:00,53.0,24.0,29.97,NNW,331,4.0,11.0,32,0.00,,,0.00,,2013-03-02 21:02:00,
2013-03-02 15:11:00,53.0,24.0,29.97,NNW,331,4.0,11.0,32,0.00,,,0.00,,2013-03-02 21:11:00,
2013-03-02 15:22:00,55.0,25.0,29.97,NW,325,5.0,12.0,31,0.00,,,0.00,,2013-03-02 21:22:00,
2013-03-02 15:32:00,54.0,24.0,29.96,West,281,2.0,8.0,31,0.00,,,0.00,,2013-03-02 21:32:00,
2013-03-02 15:42:00,54.0,24.0,29.96,West,281,2.0,8.0,31,0.00,,,0.00,,2013-03-02 21:42:00,
2013-03-02 15:52:00,55.0,24.0,29.96,WNW,292,2.0,9.0,30,0.00,,,0.00,,2013-03-02 21:52:00,
2013-03-02 16:02:00,55.0,25.0,29.96,WSW,255,4.0,11.0,31,0.00,,,0.00,,2013-03-02 22:02:00,
2013-03-02 16:11:00,55.0,25.0,29.96,WSW,255,4.0,11.0,31,0.00,,,0.00,,2013-03-02 22:11:00,
2013-03-02 16:22:00,55.0,25.0,29.95,WSW,254,4.0,9.0,31,0.00,,,0.00,,2013-03-02 22:22:00,
2013-03-02 16:32:00,56.0,26.0,29.95,West,279,3.0,8.0,31,0.00,,,0.00,,2013-03-02 22:32:00,
2013-03-02 16:42:00,56.0,26.0,29.95,West,279,3.0,8.0,31,0.00,,,0.00,,2013-03-02 22:42:00,
2013-03-02 16:52:00,55.0,25.0,29.95,NW,319,4.0,10.0,31,0.00,,,0.00,,2013-03-02 22:52:00,
2013-03-02 17:01:00,55.0,25.0,29.95,WNW,294,2.0,7.0,31,0.00,,,0.00,,2013-03-02 23:01:00,
2013-03-02 17:11:00,55.0,26.0,29.94,WNW,288,3.0,9.0,32,0.00,,,0.00,,2013-03-02 23:11:00,
2013-03-02 17:21:00,55.0,26.0,29.94,WNW,288,3.0,9.0,32,0.00,,,0.00,,2013-03-02 23:21:00,
2013-03-02 17:32:00,55.0,26.0,29.94,NW,321,2.0,5.0,32,0.00,,,0.00,,2013-03-02 23:32:00,
2013-03-02 17:42:00,55.0,26.0,29.94,NW,321,2.0,5.0,32,0.00,,,0.00,,2013-03-02 23:42:00,
2013-03-02 17:52:00,55.0,26.0,29.94,NNW,335,1.0,6.0,33,0.00,,,0.00,,2013-03-02 23:52:00,
2013-03-02 18:02:00,54.0,26.0,29.94,NW,306,1.0,6.0,34,0.00,,,0.00,,2013-03-03 00:02:00,
2013-03-02 18:11:00,54.0,26.0,29.94,NW,306,1.0,6.0,34,0.00,,,0.00,,2013-03-03 00:11:00,
2013-03-02 18:22:00,53.0,26.0,29.94,NW,313,1.0,4.0,35,0.00,,,0.00,,2013-03-03 00:22:00,
2013-03-02 18:32:00,53.0,27.0,29.94,NNW,336,0.0,4.0,36,0.00,,,0.00,,2013-03-03 00:32:00,
2013-03-02 18:42:00,53.0,27.0,29.94,NNW,336,0.0,4.0,36,0.00,,,0.00,,2013-03-03 00:42:00,
2013-03-02 18:52:00,52.0,27.0,29.94,NNW,334,0.0,3.0,37,0.00,,,0.00,,2013-03-03 00:52:00,
2013-03-02 19:01:00,51.0,27.0,29.94,NNW,331,0.0,0.0,39,0.00,,,0.00,,2013-03-03 01:01:00,
2013-03-02 19:11:00,51.0,27.0,29.94,NNW,331,0.0,0.0,39,0.00,,,0.00,,2013-03-03 01:11:00,
2013-03-02 19:21:00,49.0,27.0,29.94,NNW,331,0.0,0.0,42,0.00,,,0.00,,2013-03-03 01:21:00,
2013-03-02 19:32:00,48.0,26.0,29.94,NNW,331,0.0,0.0,42,0.00,,,0.00,,2013-03-03 01:32:00,
2013-03-02 19:42:00,48.0,26.0,29.94,NNW,331,0.0,0.0,42,0.00,,,0.00,,2013-03-03 01:42:00,
2013-03-02 19:52:00,47.0,26.0,29.94,ENE,71,0.0,4.0,43,0.00,,,0.00,,2013-03-03 01:52:00,
2013-03-02 20:01:00,47.0,26.0,29.93,ENE,70,0.0,1.0,43,0.00,,,0.00,,2013-03-03 02:01:00,
2013-03-02 20:11:00,47.0,26.0,29.93,ENE,70,0.0,1.0,43,0.00,,,0.00,,2013-03-03 02:11:00,
2013-03-02 20:21:00,46.0,26.0,29.94,ENE,70,0.0,0.0,45,0.00,,,0.00,,2013-03-03 02:21:00,
2013-03-02 20:31:00,45.0,26.0,29.94,ENE,70,0.0,0.0,47,0.00,,,0.00,,2013-03-03 02:31:00,
2013-03-02 20:42:00,45.0,26.0,29.94,ENE,70,0.0,0.0,47,0.00,,,0.00,,2013-03-03 02:42:00,
2013-03-02 20:52:00,45.0,26.0,29.94,ENE,70,0.0,0.0,47,0.00,,,0.00,,2013-03-03 02:52:00,
2013-03-02 21:01:00,44.0,26.0,29.93,ENE,70,0.0,0.0,49,0.00,,,0.00,,2013-03-03 03:01:00,
2013-03-02 21:11:00,44.0,26.0,29.93,ENE,70,0.0,0.0,49,0.00,,,0.00,,2013-03-03 03:11:00,
2013-03-02 21:21:00,44.0,27.0,29.93,ENE,70,0.0,0.0,51,0.00,,,0.00,,2013-03-03 03:21:00,
2013-03-02 21:31:00,44.0,28.0,29.94,ENE,71,0.0,0.0,52,0.00,,,0.00,,2013-03-03 03:31:00,
2013-03-02 21:42:00,44.0,28.0,29.94,ENE,71,0.0,0.0,52,0.00,,,0.00,,2013-03-03 03:42:00,
2013-03-02 21:52:00,43.0,28.0,29.93,ENE,71,0.0,0.0,55,0.00,,,0.00,,2013-03-03 03:52:00,
2013-03-02 22:01:00,42.0,28.0,29.93,ENE,71,0.0,0.0,58,0.00,,,0.00,,2013-03-03 04:01:00,
2013-03-02 22:11:00,42.0,28.0,29.93,ENE,71,0.0,0.0,58,0.00,,,0.00,,2013-03-03 04:11:00,
2013-03-02 22:21:00,42.0,28.0,29.93,SE,130,0.0,1.0,57,0.00,,,0.00,,2013-03-03 04:21:00,
2013-03-02 22:31:00,42.0,28.0,29.93,SE,129,0.0,1.0,57,0.00,,,0.00,,2013-03-03 04:31:00,
2013-03-02 22:42:00,42.0,28.0,29.93,SE,129,0.0,1.0,57,0.00,,,0.00,,2013-03-03 04:42:00,
2013-03-02 22:52:00,41.0,27.0,29.93,SE,129,0.0,0.0,57,0.00,,,0.00,,2013-03-03 04:52:00,
2013-03-02 23:02:00,41.0,27.0,29.93,SE,129,0.0,0.0,58,0.00,,,0.00,,2013-03-03 05:02:00,
2013-03-02 23:11:00,41.0,27.0,29.93,SE,129,0.0,0.0,58,0.00,,,0.00,,2013-03-03 05:11:00,
2013-03-02 23:22:00,40.0,27.0,29.92,SE,129,0.0,0.0,59,0.00,,,0.00,,2013-03-03 05:22:00,
2013-03-02 23:32:00,41.0,27.0,29.91,SE,126,0.0,3.0,56,0.00,,,0.00,,2013-03-03 05:32:00,
2013-03-02 23:42:00,41.0,27.0,29.91,SE,126,0.0,3.0,56,0.00,,,0.00,,2013-03-03 05:42:00,
2013-03-02 23:52:00,41.0,27.0,29.92,SE,134,0.0,2.0,56,0.00,,,0.00,,2013-03-03 05:52:00,